Time,TemperatureF,DewpointF,PressureIn,WindDirection,WindDirectionDegrees,WindSpeedMPH,WindSpeedGustMPH,Humidity,HourlyPrecipIn,Conditions,Clouds,dailyrainin,SoftwareType,DateUTC
2013-05-12 00:01:00,62.0,28.0,30.23,West,273,0.0,0.0,27,0.00,,,0.00,,2013-05-12 06:01:00,
2013-05-12 00:21:00,62.0,27.0,30.23,West,273,0.0,0.0,26,0.00,,,0.00,,2013-05-12 06:21:00,
2013-05-12 00:31:00,63.0,27.0,30.23,West,273,0.0,1.0,25,0.00,,,0.00,,2013-05-12 06:31:00,
2013-05-12 00:41:00,64.0,25.0,30.23,West,273,1.0,4.0,23,0.00,,,0.00,,2013-05-12 06:41:00,
2013-05-12 01:01:00,62.0,27.0,30.24,West,273,1.0,5.0,26,0.00,,,0.00,,2013-05-12 07:01:00,
2013-05-12 01:32:00,59.0,27.0,30.24,NNE,14,1.0,6.0,29,0.00,,,0.00,,2013-05-12 07:32:00,
2013-05-12 01:42:00,59.0,27.0,30.24,NNE,14,1.0,6.0,29,0.00,,,0.00,,2013-05-12 07:42:00,
2013-05-12 01:52:00,59.0,26.0,30.24,ESE,103,2.0,7.0,28,0.00,,,0.00,,2013-05-12 07:52:00,
2013-05-12 02:01:00,58.0,25.0,30.24,East,98,5.0,9.0,28,0.00,,,0.00,,2013-05-12 08:01:00,
2013-05-12 02:11:00,58.0,25.0,30.24,East,98,5.0,9.0,28,0.00,,,0.00,,2013-05-12 08:11:00,
2013-05-12 02:21:00,57.0,26.0,30.24,ESE,105,4.0,8.0,30,0.00,,,0.00,,2013-05-12 08:21:00,
2013-05-12 02:31:00,58.0,24.0,30.24,SE,129,9.0,13.0,27,0.00,,,0.00,,2013-05-12 08:31:00,
2013-05-12 02:41:00,58.0,24.0,30.24,SE,129,9.0,13.0,27,0.00,,,0.00,,2013-05-12 08:41:00,
2013-05-12 02:53:00,55.0,26.0,30.24,ENE,66,3.0,5.0,32,0.00,,,0.00,,2013-05-12 08:53:00,
2013-05-12 03:01:00,55.0,26.0,30.24,ENE,67,1.0,5.0,32,0.00,,,0.00,,2013-05-12 09:01:00,
2013-05-12 03:11:00,55.0,26.0,30.24,ENE,67,1.0,5.0,32,0.00,,,0.00,,2013-05-12 09:11:00,
2013-05-12 03:21:00,56.0,25.0,30.24,ENE,67,1.0,3.0,30,0.00,,,0.00,,2013-05-12 09:21:00,
2013-05-12 03:32:00,57.0,25.0,30.24,ENE,66,2.0,4.0,29,0.00,,,0.00,,2013-05-12 09:32:00,
2013-05-12 03:42:00,57.0,25.0,30.24,ENE,66,2.0,4.0,29,0.00,,,0.00,,2013-05-12 09:42:00,
2013-05-12 04:02:00,56.0,24.0,30.23,ENE,57,2.0,5.0,29,0.00,,,0.00,,2013-05-12 10:02:00,
2013-05-12 04:32:00,56.0,27.0,30.23,East,90,0.0,7.0,33,0.00,,,0.00,,2013-05-12 10:32:00,
2013-05-12 05:02:00,56.0,29.0,30.23,East,86,2.0,7.0,35,0.00,,,0.00,,2013-05-12 11:02:00,
2013-05-12 05:21:00,55.0,28.0,30.23,East,86,1.0,5.0,35,0.00,,,0.00,,2013-05-12 11:21:00,
2013-05-12 05:31:00,55.0,26.0,30.24,East,90,0.0,6.0,33,0.00,,,0.00,,2013-05-12 11:31:00,
2013-05-12 05:41:00,57.0,27.0,30.23,East,90,1.0,3.0,31,0.00,,,0.00,,2013-05-12 11:41:00,
2013-05-12 06:01:00,56.0,27.0,30.23,East,92,1.0,6.0,32,0.00,,,0.00,,2013-05-12 12:01:00,
2013-05-12 06:11:00,56.0,27.0,30.23,SE,127,5.0,9.0,32,0.00,,,0.00,,2013-05-12 12:11:00,
2013-05-12 06:31:00,56.0,27.0,30.23,East,93,2.0,6.0,32,0.00,,,0.00,,2013-05-12 12:31:00,
2013-05-12 07:01:00,55.0,28.0,30.24,East,80,1.0,3.0,35,0.00,,,0.00,,2013-05-12 13:01:00,
2013-05-12 07:31:00,58.0,30.0,30.24,East,98,7.0,8.0,34,0.00,,,0.00,,2013-05-12 13:31:00,
2013-05-12 07:52:00,58.0,31.0,30.25,ESE,116,8.0,13.0,35,0.00,,,0.00,,2013-05-12 13:52:00,
2013-05-12 08:01:00,58.0,31.0,30.25,SE,131,9.0,13.0,35,0.00,,,0.00,,2013-05-12 14:01:00,
2013-05-12 08:31:00,59.0,31.0,30.25,SE,130,10.0,15.0,35,0.00,,,0.00,,2013-05-12 14:31:00,
2013-05-12 08:41:00,60.0,31.0,30.25,SE,126,9.0,15.0,33,0.00,,,0.00,,2013-05-12 14:41:00,
2013-05-12 09:01:00,60.0,32.0,30.26,SE,138,10.0,16.0,34,0.00,,,0.00,,2013-05-12 15:01:00,
2013-05-12 09:21:00,61.0,30.0,30.26,SE,133,10.0,15.0,31,0.00,,,0.00,,2013-05-12 15:21:00,
2013-05-12 09:33:00,61.0,30.0,30.26,SE,124,10.0,15.0,31,0.00,,,0.00,,2013-05-12 15:33:00,
2013-05-12 09:42:00,61.0,30.0,30.26,SE,124,10.0,15.0,31,0.00,,,0.00,,2013-05-12 15:42:00,
2013-05-12 09:52:00,62.0,32.0,30.26,ESE,110,11.0,15.0,32,0.00,,,0.00,,2013-05-12 15:52:00,
2013-05-12 10:02:00,63.0,34.0,30.26,ESE,115,9.0,13.0,34,0.00,,,0.00,,2013-05-12 16:02:00,
2013-05-12 10:12:00,63.0,34.0,30.26,ESE,115,9.0,13.0,34,0.00,,,0.00,,2013-05-12 16:12:00,
2013-05-12 10:23:00,64.0,32.0,30.26,ESE,105,9.0,12.0,30,0.00,,,0.00,,2013-05-12 16:23:00,
2013-05-12 10:32:00,65.0,33.0,30.25,ESE,119,8.0,11.0,30,0.00,,,0.00,,2013-05-12 16:32:00,
2013-05-12 10:41:00,65.0,33.0,30.25,ESE,119,8.0,11.0,30,0.00,,,0.00,,2013-05-12 16:41:00,
2013-05-12 10:52:00,65.0,31.0,30.25,ESE,112,9.0,13.0,28,0.00,,,0.00,,2013-05-12 16:52:00,
2013-05-12 11:01:00,66.0,32.0,30.25,SE,131,9.0,12.0,28,0.00,,,0.00,,2013-05-12 17:01:00,
2013-05-12 11:11:00,67.0,35.0,30.25,SE,132,6.0,10.0,31,0.00,,,0.00,,2013-05-12 17:11:00,
2013-05-12 11:22:00,67.0,35.0,30.25,SE,132,6.0,10.0,31,0.00,,,0.00,,2013-05-12 17:22:00,
2013-05-12 11:32:00,68.0,33.0,30.25,SE,125,6.0,10.0,27,0.00,,,0.00,,2013-05-12 17:32:00,
2013-05-12 11:42:00,69.0,34.0,30.25,SE,128,3.0,7.0,27,0.00,,,0.00,,2013-05-12 17:42:00,
2013-05-12 11:52:00,69.0,34.0,30.25,SE,128,3.0,7.0,27,0.00,,,0.00,,2013-05-12 17:52:00,
2013-05-12 12:01:00,70.0,34.0,30.25,SSE,167,5.0,7.0,27,0.00,,,0.00,,2013-05-12 18:01:00,
2013-05-12 12:12:00,70.0,34.0,30.25,SSE,167,5.0,7.0,27,0.00,,,0.00,,2013-05-12 18:12:00,
2013-05-12 12:22:00,70.0,33.0,30.25,South,175,3.0,8.0,25,0.00,,,0.00,,2013-05-12 18:22:00,
2013-05-12 12:31:00,72.0,34.0,30.24,SSW,211,6.0,11.0,25,0.00,,,0.00,,2013-05-12 18:31:00,
2013-05-12 12:41:00,72.0,34.0,30.24,SSW,211,6.0,11.0,25,0.00,,,0.00,,2013-05-12 18:41:00,
2013-05-12 12:52:00,73.0,35.0,30.24,West,273,9.0,15.0,25,0.00,,,0.00,,2013-05-12 18:52:00,
2013-05-12 13:01:00,73.0,32.0,30.24,SW,221,8.0,16.0,22,0.00,,,0.00,,2013-05-12 19:01:00,
2013-05-12 13:11:00,73.0,32.0,30.24,SW,221,8.0,16.0,22,0.00,,,0.00,,2013-05-12 19:11:00,
2013-05-12 13:21:00,74.0,32.0,30.24,West,261,9.0,17.0,21,0.00,,,0.00,,2013-05-12 19:21:00,
2013-05-12 13:32:00,75.0,31.0,30.23,West,269,10.0,13.0,20,0.00,,,0.00,,2013-05-12 19:32:00,
2013-05-12 13:41:00,74.0,30.0,30.23,SW,223,9.0,17.0,20,0.00,,,0.00,,2013-05-12 19:41:00,
2013-05-12 13:52:00,74.0,30.0,30.23,SW,223,9.0,17.0,20,0.00,,,0.00,,2013-05-12 19:52:00,
2013-05-12 14:01:00,74.0,30.0,30.23,WSW,253,9.0,18.0,20,0.00,,,0.00,,2013-05-12 20:01:00,
2013-05-12 14:11:00,74.0,30.0,30.22,SSW,204,9.0,12.0,20,0.00,,,0.00,,2013-05-12 20:11:00,
2013-05-12 14:21:00,74.0,30.0,30.22,SSW,204,9.0,12.0,20,0.00,,,0.00,,2013-05-12 20:21:00,
2013-05-12 14:32:00,75.0,30.0,30.22,West,275,9.0,15.0,19,0.00,,,0.00,,2013-05-12 20:32:00,
2013-05-12 14:41:00,75.0,30.0,30.22,West,275,9.0,15.0,19,0.00,,,0.00,,2013-05-12 20:41:00,
2013-05-12 14:52:00,75.0,34.0,30.21,SSW,199,6.0,14.0,22,0.00,,,0.00,,2013-05-12 20:52:00,
2013-05-12 15:01:00,76.0,32.0,30.21,SW,215,6.0,15.0,20,0.00,,,0.00,,2013-05-12 21:01:00,
2013-05-12 15:11:00,75.0,30.0,30.21,West,280,9.0,16.0,19,0.00,,,0.00,,2013-05-12 21:11:00,
2013-05-12 15:21:00,75.0,30.0,30.21,West,280,9.0,16.0,19,0.00,,,0.00,,2013-05-12 21:21:00,
2013-05-12 15:32:00,77.0,33.0,30.20,WSW,250,6.0,15.0,20,0.00,,,0.00,,2013-05-12 21:32:00,
2013-05-12 15:42:00,77.0,33.0,30.20,WSW,250,6.0,15.0,20,0.00,,,0.00,,2013-05-12 21:42:00,
2013-05-12 15:53:00,77.0,34.0,30.19,SSW,201,6.0,13.0,21,0.00,,,0.00,,2013-05-12 21:53:00,
2013-05-12 16:02:00,77.0,33.0,30.19,WSW,255,11.0,21.0,20,0.00,,,0.00,,2013-05-12 22:02:00,
2013-05-12 16:12:00,77.0,33.0,30.19,WSW,255,11.0,21.0,20,0.00,,,0.00,,2013-05-12 22:12:00,
2013-05-12 16:22:00,77.0,32.0,30.18,WSW,237,8.0,15.0,19,0.00,,,0.00,,2013-05-12 22:22:00,
2013-05-12 16:32:00,77.0,33.0,30.18,WSW,255,11.0,17.0,20,0.00,,,0.00,,2013-05-12 22:32:00,
2013-05-12 16:42:00,77.0,33.0,30.18,WSW,255,11.0,17.0,20,0.00,,,0.00,,2013-05-12 22:42:00,
2013-05-12 16:52:00,77.0,33.0,30.17,West,259,9.0,14.0,20,0.00,,,0.00,,2013-05-12 22:52:00,
2013-05-12 17:02:00,77.0,29.0,30.17,WSW,245,13.0,19.0,17,0.00,,,0.00,,2013-05-12 23:02:00,
2013-05-12 17:11:00,76.0,28.0,30.16,West,259,13.0,23.0,17,0.00,,,0.00,,2013-05-12 23:11:00,
2013-05-12 17:22:00,76.0,28.0,30.16,West,259,13.0,23.0,17,0.00,,,0.00,,2013-05-12 23:22:00,
2013-05-12 17:32:00,76.0,29.0,30.16,West,267,15.0,21.0,18,0.00,,,0.00,,2013-05-12 23:32:00,
2013-05-12 17:42:00,76.0,29.0,30.16,West,267,15.0,21.0,18,0.00,,,0.00,,2013-05-12 23:42:00,
2013-05-12 17:52:00,76.0,32.0,30.16,WSW,246,6.0,15.0,20,0.00,,,0.00,,2013-05-12 23:52:00,
2013-05-12 18:01:00,76.0,29.0,30.16,SW,234,11.0,19.0,18,0.00,,,0.00,,2013-05-13 00:01:00,
2013-05-12 18:11:00,76.0,29.0,30.16,SW,234,11.0,19.0,18,0.00,,,0.00,,2013-05-13 00:11:00,
2013-05-12 18:21:00,76.0,32.0,30.15,WSW,254,7.0,15.0,20,0.00,,,0.00,,2013-05-13 00:21:00,
2013-05-12 18:32:00,75.0,31.0,30.15,SW,232,9.0,20.0,20,0.00,,,0.00,,2013-05-13 00:32:00,
2013-05-12 18:41:00,74.0,32.0,30.15,SW,234,10.0,15.0,21,0.00,,,0.00,,2013-05-13 00:41:00,
2013-05-12 18:51:00,74.0,32.0,30.15,SW,234,10.0,15.0,21,0.00,,,0.00,,2013-05-13 00:51:00,
2013-05-12 19:01:00,74.0,33.0,30.14,SW,235,10.0,15.0,22,0.00,,,0.00,,2013-05-13 01:01:00,
2013-05-12 19:11:00,74.0,33.0,30.14,SW,235,10.0,15.0,22,0.00,,,0.00,,2013-05-13 01:11:00,
2013-05-12 19:21:00,73.0,31.0,30.13,SW,232,12.0,16.0,21,0.00,,,0.00,,2013-05-13 01:21:00,
2013-05-12 19:31:00,73.0,30.0,30.13,West,266,11.0,16.0,20,0.00,,,0.00,,2013-05-13 01:31:00,
2013-05-12 19:41:00,73.0,30.0,30.13,West,266,11.0,16.0,20,0.00,,,0.00,,2013-05-13 01:41:00,
2013-05-12 19:52:00,72.0,29.0,30.13,WSW,244,9.0,16.0,20,0.00,,,0.00,,2013-05-13 01:52:00,
2013-05-12 20:01:00,71.0,29.0,30.13,WSW,246,9.0,14.0,21,0.00,,,0.00,,2013-05-13 02:01:00,
2013-05-12 20:11:00,71.0,29.0,30.13,WSW,246,9.0,14.0,21,0.00,,,0.00,,2013-05-13 02:11:00,
2013-05-12 20:21:00,71.0,30.0,30.13,SW,236,9.0,15.0,22,0.00,,,0.00,,2013-05-13 02:21:00,
2013-05-12 20:31:00,70.0,30.0,30.13,WSW,242,8.0,13.0,23,0.00,,,0.00,,2013-05-13 02:31:00,
2013-05-12 20:41:00,70.0,30.0,30.13,WSW,242,8.0,13.0,23,0.00,,,0.00,,2013-05-13 02:41:00,
2013-05-12 20:52:00,69.0,30.0,30.13,WSW,242,8.0,13.0,23,0.00,,,0.00,,2013-05-13 02:52:00,
2013-05-12 21:01:00,69.0,30.0,30.13,SW,229,9.0,13.0,23,0.00,,,0.00,,2013-05-13 03:01:00,
2013-05-12 21:11:00,69.0,30.0,30.13,SW,229,9.0,13.0,23,0.00,,,0.00,,2013-05-13 03:11:00,
2013-05-12 21:21:00,68.0,30.0,30.14,SW,234,7.0,13.0,24,0.00,,,0.00,,2013-05-13 03:21:00,
2013-05-12 21:32:00,68.0,29.0,30.14,SW,216,9.0,13.0,23,0.00,,,0.00,,2013-05-13 03:32:00,
2013-05-12 21:42:00,68.0,29.0,30.14,SW,216,9.0,13.0,23,0.00,,,0.00,,2013-05-13 03:42:00,
2013-05-12 21:53:00,68.0,30.0,30.14,SSW,212,6.0,14.0,24,0.00,,,0.00,,2013-05-13 03:53:00,
2013-05-12 22:02:00,67.0,29.0,30.14,SSW,200,5.0,8.0,24,0.00,,,0.00,,2013-05-13 04:02:00,
2013-05-12 22:12:00,67.0,29.0,30.14,SSW,200,5.0,8.0,24,0.00,,,0.00,,2013-05-13 04:12:00,
2013-05-12 22:22:00,67.0,29.0,30.14,SSW,209,7.0,9.0,24,0.00,,,0.00,,2013-05-13 04:22:00,
2013-05-12 22:32:00,67.0,29.0,30.15,SSW,196,6.0,9.0,24,0.00,,,0.00,,2013-05-13 04:32:00,
2013-05-12 22:41:00,67.0,29.0,30.15,SSW,196,6.0,9.0,24,0.00,,,0.00,,2013-05-13 04:41:00,
2013-05-12 22:52:00,67.0,30.0,30.15,SSW,211,4.0,7.0,25,0.00,,,0.00,,2013-05-13 04:52:00,
2013-05-12 23:02:00,66.0,31.0,30.15,South,184,3.0,7.0,27,0.00,,,0.00,,2013-05-13 05:02:00,
2013-05-12 23:11:00,66.0,31.0,30.15,South,184,3.0,7.0,27,0.00,,,0.00,,2013-05-13 05:11:00,
2013-05-12 23:21:00,65.0,30.0,30.15,South,190,4.0,8.0,27,0.00,,,0.00,,2013-05-13 05:21:00,
2013-05-12 23:32:00,65.0,30.0,30.15,South,187,3.0,7.0,27,0.00,,,0.00,,2013-05-13 05:32:00,
2013-05-12 23:42:00,65.0,30.0,30.15,South,187,3.0,7.0,27,0.00,,,0.00,,2013-05-13 05:42:00,
2013-05-12 23:52:00,65.0,30.0,30.16,South,184,3.0,8.0,27,0.00,,,0.00,,2013-05-13 05:52:00,